| time (UTC) | temp F | wind direction | speed MPH | gust MPH | rain 1hr in | rain 24hr in | rain mn in | humidity % | barometer mb |
| 20260510014557 | 46 | 229 | 4.0 | 8.0 | 0.00 | 0.24 | 0.07 | 92 | 1013.1 |
| 20260510013057 | 46 | 264 | 7.0 | 16.0 | 0.00 | 0.24 | 0.07 | 92 | 1013.3 |
| 20260510011557 | 46 | 233 | 8.0 | 15.0 | 0.00 | 0.24 | 0.07 | 92 | 1013.4 |
| 20260510010109 | 46 | 263 | 5.0 | 13.0 | 0.00 | 0.24 | 0.07 | 92 | 1013.6 |
| 20260510004602 | 46 | 250 | 7.0 | 14.0 | 0.00 | 0.24 | 0.07 | 91 | 1013.6 |
| 20260510003103 | 46 | 224 | 4.0 | 10.0 | 0.00 | 0.24 | 0.07 | 92 | 1013.8 |
| 20260510001600 | 46 | 266 | 2.0 | 7.0 | 0.00 | 0.24 | 0.07 | 92 | 1013.8 |
| 20260509234601 | 46 | 229 | 2.0 | 11.0 | 0.00 | 0.24 | 0.07 | 92 | 1013.8 |
| 20260509233101 | 46 | 240 | 6.0 | 12.0 | 0.01 | 0.23 | 0.06 | 92 | 1013.5 |
| 20260509231601 | 46 | 257 | 6.0 | 18.0 | 0.06 | 0.23 | 0.06 | 92 | 1013.7 |
| 20260509230059 | 46 | 256 | 7.0 | 16.0 | 0.06 | 0.23 | 0.06 | 92 | 1013.6 |
| 20260509224600 | 47 | 221 | 9.0 | 25.0 | 0.06 | 0.23 | 0.06 | 92 | 1013.5 |
| 20260509223104 | 48 | 293 | 18.0 | 27.0 | 0.04 | 0.22 | 0.04 | 87 | 1013.6 |
| 20260509221603 | 50 | 172 | 5.0 | 16.0 | 0.00 | 0.17 | 0.00 | 88 | 1012.7 |
| 20260509214628 | 50 | 203 | 7.0 | 14.0 | 0.00 | 0.17 | 0.17 | 89 | 1013.0 |
| 20260509213103 | 50 | 246 | 6.0 | 14.0 | 0.00 | 0.17 | 0.17 | 89 | 1013.0 |
| 20260509211601 | 49 | 189 | 5.0 | 11.0 | 0.00 | 0.17 | 0.17 | 90 | 1012.8 |
| 20260509210107 | 49 | 190 | 1.0 | 3.0 | 0.00 | 0.17 | 0.17 | 91 | 1012.7 |
| 20260509204558 | 49 | 0 | 0.0 | 3.0 | 0.00 | 0.17 | 0.17 | 90 | 1012.6 |
| 20260509203115 | 50 | 0 | 0.0 | 1.0 | 0.00 | 0.17 | 0.17 | 90 | 1012.4 |
| 20260509201559 | 50 | 0 | 0.0 | 2.0 | 0.00 | 0.17 | 0.17 | 91 | 1012.3 |
| 20260509200100 | 50 | 0 | 0.0 | 2.0 | 0.00 | 0.17 | 0.17 | 91 | 1012.1 |
| 20260509194558 | 50 | 0 | 0.0 | 3.0 | 0.00 | 0.17 | 0.17 | 91 | 1012.0 |
| 20260509193111 | 50 | 135 | 0.0 | 1.0 | 0.00 | 0.17 | 0.17 | 90 | 1011.9 |
| 20260509191608 | 50 | 0 | 0.0 | 3.0 | 0.00 | 0.17 | 0.17 | 89 | 1011.8 |
| 20260509190100 | 51 | 150 | 0.0 | 2.0 | 0.00 | 0.17 | 0.17 | 87 | 1011.7 |
| 20260509184601 | 51 | 233 | 2.0 | 5.0 | 0.03 | 0.17 | 0.17 | 85 | 1011.7 |
| 20260509183100 | 50 | 228 | 1.0 | 5.0 | 0.07 | 0.17 | 0.17 | 86 | 1011.7 |
| 20260509181558 | 50 | 254 | 3.0 | 8.0 | 0.07 | 0.17 | 0.17 | 85 | 1011.5 |
| 20260509180106 | 51 | 257 | 6.0 | 10.0 | 0.07 | 0.16 | 0.16 | 85 | 1011.7 |
| 20260509174622 | 52 | 233 | 6.0 | 15.0 | 0.05 | 0.14 | 0.14 | 86 | 1011.8 |
| 20260509173100 | 53 | 225 | 7.0 | 13.0 | 0.01 | 0.10 | 0.10 | 83 | 1011.1 |
| 20260509171600 | 54 | 248 | 9.0 | 15.0 | 0.01 | 0.10 | 0.10 | 81 | 1010.8 |
| 20260509170109 | 56 | 252 | 6.0 | 12.0 | 0.00 | 0.08 | 0.08 | 78 | 1010.9 |
| 20260509164600 | 58 | 270 | 7.0 | 12.0 | 0.00 | 0.08 | 0.08 | 73 | 1010.5 |
| 20260509163101 | 59 | 160 | 6.0 | 15.0 | 0.00 | 0.08 | 0.08 | 71 | 1010.3 |
| 20260509161602 | 58 | 248 | 2.0 | 8.0 | 0.00 | 0.08 | 0.08 | 74 | 1010.2 |
| 20260509160058 | 57 | 157 | 2.0 | 10.0 | 0.01 | 0.08 | 0.08 | 79 | 1010.3 |
| 20260509154600 | 55 | 120 | 1.0 | 5.0 | 0.02 | 0.09 | 0.08 | 83 | 1010.7 |
| 20260509153117 | 53 | 118 | 2.0 | 4.0 | 0.04 | 0.09 | 0.08 | 88 | 1011.1 |
| 20260509151600 | 51 | 147 | 1.0 | 7.0 | 0.08 | 0.09 | 0.08 | 90 | 1011.6 |
| 20260509150058 | 51 | 283 | 6.0 | 20.0 | 0.07 | 0.07 | 0.07 | 89 | 1011.9 |
| 20260509144600 | 52 | 235 | 7.0 | 18.0 | 0.06 | 0.18 | 0.06 | 88 | 1011.7 |
| 20260509143059 | 54 | 234 | 18.0 | 31.0 | 0.03 | 0.15 | 0.03 | 81 | 1011.0 |
| 20260509141557 | 61 | 243 | 6.0 | 16.0 | 0.00 | 0.11 | 0.00 | 54 | 1010.3 |
| 20260509134557 | 63 | 130 | 4.0 | 16.0 | 0.00 | 0.16 | 0.00 | 52 | 1010.2 |
| 20260509133100 | 63 | 234 | 6.0 | 19.0 | 0.00 | 0.16 | 0.00 | 54 | 1010.2 |
| 20260509131600 | 63 | 188 | 7.0 | 18.0 | 0.00 | 0.16 | 0.00 | 54 | 1010.4 |
| 20260509130108 | 62 | 236 | 8.0 | 15.0 | 0.00 | 0.16 | 0.00 | 49 | 1010.6 |
| 20260509124601 | 62 | 120 | 7.0 | 23.0 | 0.00 | 0.18 | 0.00 | 54 | 1010.7 |
| 20260509123058 | 62 | 243 | 8.0 | 19.0 | 0.00 | 0.18 | 0.00 | 55 | 1010.8 |
| 20260509121625 | 61 | 281 | 6.0 | 15.0 | 0.00 | 0.18 | 0.00 | 56 | 1010.7 |
| 20260509120059 | 61 | 155 | 3.0 | 13.0 | 0.00 | 0.18 | 0.00 | 58 | 1010.6 |
| 20260509114604 | 60 | 188 | 4.0 | 13.0 | 0.00 | 0.18 | 0.00 | 61 | 1010.7 |
| 20260509113101 | 59 | 240 | 3.0 | 9.0 | 0.00 | 0.18 | 0.00 | 62 | 1010.9 |
| 20260509111559 | 59 | 247 | 2.0 | 9.0 | 0.00 | 0.18 | 0.00 | 64 | 1011.1 |
| 20260509110108 | 58 | 288 | 5.0 | 13.0 | 0.00 | 0.18 | 0.00 | 68 | 1011.2 |
| 20260509104559 | 59 | 0 | 3.0 | 8.0 | 0.00 | 0.18 | 0.00 | 65 | 1011.3 |
| 20260509103103 | 58 | 236 | 3.0 | 7.0 | 0.00 | 0.18 | 0.00 | 67 | 1011.3 |
| 20260509101619 | 57 | 0 | 2.0 | 6.0 | 0.00 | 0.18 | 0.00 | 69 | 1011.1 |
| 20260509100058 | 56 | 228 | 2.0 | 6.0 | 0.00 | 0.18 | 0.00 | 72 | 1011.2 |
| 20260509094609 | 55 | 157 | 2.0 | 6.0 | 0.00 | 0.18 | 0.00 | 73 | 1011.3 |
| 20260509093100 | 54 | 136 | 3.0 | 10.0 | 0.00 | 0.18 | 0.00 | 75 | 1011.3 |
| 20260509091607 | 54 | 272 | 2.0 | 6.0 | 0.00 | 0.18 | 0.00 | 76 | 1011.4 |
| 20260509090106 | 53 | 141 | 1.0 | 7.0 | 0.00 | 0.18 | 0.00 | 77 | 1011.1 |
| 20260509084603 | 52 | 252 | 4.0 | 8.0 | 0.00 | 0.18 | 0.00 | 80 | 1010.9 |
| 20260509083108 | 51 | 246 | 2.0 | 7.0 | 0.00 | 0.18 | 0.00 | 81 | 1010.8 |
| 20260509081559 | 50 | 258 | 2.0 | 7.0 | 0.00 | 0.18 | 0.00 | 83 | 1010.4 |
| 20260509080100 | 50 | 117 | 1.0 | 9.0 | 0.00 | 0.18 | 0.00 | 84 | 1010.6 |
| 20260509074600 | 50 | 102 | 1.0 | 8.0 | 0.00 | 0.18 | 0.00 | 83 | 1010.8 |
| 20260509073057 | 50 | 117 | 2.0 | 11.0 | 0.00 | 0.18 | 0.00 | 84 | 1010.9 |
| 20260509071604 | 50 | 247 | 4.0 | 13.0 | 0.00 | 0.18 | 0.00 | 85 | 1011.2 |
| 20260509070100 | 49 | 182 | 1.0 | 10.0 | 0.00 | 0.18 | 0.00 | 87 | 1011.3 |
| 20260509064610 | 49 | 153 | 0.0 | 6.0 | 0.00 | 0.18 | 0.00 | 88 | 1011.7 |
| 20260509063106 | 49 | 118 | 0.0 | 2.0 | 0.00 | 0.18 | 0.00 | 89 | 1011.6 |
| 20260509061610 | 48 | 56 | 2.0 | 4.0 | 0.00 | 0.18 | 0.00 | 89 | 1011.8 |
| 20260509060109 | 48 | 0 | 0.0 | 1.0 | 0.00 | 0.18 | 0.00 | 89 | 1011.8 |
| 20260509054613 | 48 | 0 | 0.0 | 2.0 | 0.00 | 0.18 | 0.00 | 88 | 1011.7 |
| 20260509053135 | 48 | 245 | 1.0 | 8.0 | 0.00 | 0.18 | 0.00 | 88 | 1011.4 |
| 20260509051606 | 49 | 131 | 1.0 | 6.0 | 0.00 | 0.18 | 0.00 | 86 | 1010.9 |
| 20260509050107 | 49 | 102 | 1.0 | 3.0 | 0.00 | 0.18 | 0.00 | 87 | 1010.6 |
| 20260509044659 | 48 | 0 | 1.0 | 5.0 | 0.00 | 0.18 | 0.00 | 88 | 1010.9 |
| 20260509043140 | 48 | 0 | 0.0 | 2.0 | 0.00 | 0.18 | 0.00 | 88 | 1011.0 |
| 20260509041605 | 49 | 0 | 0.0 | 1.0 | 0.00 | 0.18 | 0.00 | 88 | 1010.9 |
| 20260509034600 | 49 | 259 | 0.0 | 2.0 | 0.00 | 0.18 | 0.00 | 88 | 1011.4 |
| 20260509033111 | 49 | 179 | 0.0 | 2.0 | 0.00 | 0.18 | 0.00 | 89 | 1011.5 |
| 20260509031612 | 49 | 0 | 0.0 | 3.0 | 0.00 | 0.18 | 0.00 | 89 | 1011.3 |
| 20260509030114 | 49 | 0 | 0.0 | 4.0 | 0.00 | 0.18 | 0.00 | 89 | 1011.4 |
| 20260509024603 | 49 | 66 | 0.0 | 3.0 | 0.00 | 0.18 | 0.00 | 89 | 1011.5 |
| 20260509023100 | 49 | 42 | 0.0 | 6.0 | 0.00 | 0.18 | 0.00 | 89 | 1011.5 |
| 20260509021602 | 49 | 125 | 0.0 | 5.0 | 0.00 | 0.18 | 0.00 | 89 | 1011.7 |
| 20260509020107 | 50 | 124 | 0.0 | 6.0 | 0.00 | 0.18 | 0.00 | 89 | 1011.5 |